Flag for Denmark Weather past 2 weeks in Odense, Denmark

Now
27 °F

Chilly.


Feels Like: 19 °F
Forecast: 28 / 35 °F
Wind: 7 mph from North

Location: Vamdrup

Current Time: Dec 25, 2014 at 10:34:29 PM

Latest Report: Dec 25, 2014 at 9:50 PM


Visibility: N/A

Pressure: 30.27 "Hg

Humidity: 86%

Dew point: 23 °F

Location of OdenseLocation

Historic Weather in Odense — Graph

°F

Odense temperature yesterday

Maximum temperature yesterday: 48 °F (at 6:50 AM)
Minimum temperature yesterday: 39 °F (at 5:20 PM)
Average temperature yesterday: 43 °F

Past Weeks' High & Low Weather Summary

 TemperatureHumidityPressure
High52 °F (Dec 18, 8:20 PM)100% (Dec 11, 4:50 PM)30.27 "Hg (Dec 11, 4:50 PM)
Low27 °F (Dec 25, 8:20 PM)71% (Dec 20, 5:20 AM)28.91 "Hg (Dec 12, 1:50 PM)
Average41 °F90%29.60 "Hg
* Reported Dec 10 9:20 PM — Dec 25 9:20 PM, Odense, Weather by CustomWeather, © 2014

Note: Actual official high and low records may vary slightly from our data, if they occured in-between our weather recording intervals... More about our weather records

Advertising

Odense weather history for previous 24 hours

 ConditionsComfort  
Time TempWeatherWind HumidityBarometerVisibility
9:20 PM
Dec 25
27 °FChilly.7 mph86%30.27 "HgN/A
8:50 PM27 °FChilly.7 mph93%30.24 "HgN/A
8:20 PM27 °FChilly.7 mph93%30.24 "HgN/A
7:50 PM28 °FChilly.8 mph86%30.21 "HgN/A
7:20 PM28 °FChilly.8 mph86%30.21 "HgN/A
6:50 PM30 °FChilly.6 mph80%30.21 "HgN/A
6:20 PM30 °FChilly.10 mph75%30.18 "HgN/A
5:50 PM30 °FChilly.9 mph80%30.18 "HgN/A
5:20 PM30 °FChilly.14 mph80%30.15 "HgN/A
4:50 PM32 °FChilly.8 mph75%30.15 "HgN/A
4:20 PM32 °FChilly.9 mph75%30.12 "HgN/A
3:50 PM32 °FChilly.15 mph75%30.09 "HgN/A
3:20 PM32 °FChilly.20 mph80%30.09 "HgN/A
2:50 PM32 °FChilly.15 mph87%30.07 "HgN/A
2:20 PM32 °FChilly.15 mph87%30.04 "HgN/A
1:50 PM32 °FChilly.15 mph93%30.01 "HgN/A
1:20 PM32 °FChilly.12 mph93%30.01 "HgN/A
12:50 PM32 °FChilly.10 mph93%29.98 "HgN/A
12:20 PM32 °FChilly.10 mph100%29.95 "HgN/A
11:50 AM32 °FChilly.14 mph100%29.92 "HgN/A
11:20 AM34 °FChilly.14 mph93%29.92 "HgN/A
10:50 AM34 °FChilly.16 mph93%29.89 "HgN/A
10:20 AM34 °FChilly.20 mph93%29.86 "HgN/A
9:50 AM34 °FChilly.14 mph100%29.83 "HgN/A
9:20 AM36 °FChilly.15 mph93%29.80 "HgN/A
8:50 AM36 °FChilly.16 mph93%29.77 "HgN/A
8:20 AM37 °FChilly.10 mph93%29.74 "HgN/A
7:50 AM37 °FChilly.8 mph100%29.71 "HgN/A
7:20 AM37 °FChilly.1 mph100%29.71 "HgN/A
6:50 AM37 °FChilly.3 mph93%29.68 "HgN/A
6:20 AM37 °FChilly.3 mph100%29.68 "HgN/A
5:50 AM37 °FChilly.3 mph100%29.68 "HgN/A
5:20 AM39 °FChilly.6 mph93%29.68 "HgN/A
4:50 AM39 °FChilly.3 mph93%29.68 "HgN/A
4:20 AM39 °FChilly.1 mph93%29.68 "HgN/A
3:50 AM39 °FChilly.6 mph93%29.68 "HgN/A
3:20 AM37 °FChilly.5 mph93%29.71 "HgN/A
2:50 AM39 °FChilly.12 mph87%29.71 "HgN/A
2:20 AM39 °FChilly.13 mph93%29.71 "HgN/A
1:50 AM39 °FChilly.6 mph93%29.74 "HgN/A
1:20 AM39 °FChilly.5 mph93%29.74 "HgN/A
12:50 AM39 °FChilly.5 mph93%29.74 "HgN/A
12:20 AM39 °FChilly.9 mph93%29.74 "HgN/A
11:50 PM
Dec 24
39 °FChilly.8 mph93%29.74 "HgN/A
11:20 PM41 °FQuite cool.12 mph87%29.74 "HgN/A
10:50 PM39 °FChilly.9 mph87%29.71 "HgN/A
10:20 PM41 °FQuite cool.16 mph87%29.74 "HgN/A
Weather by CustomWeather, © 2014

See weather overviewHow to use our weather pages